DELTA 1 DEB

Satellite information

Favourite Embed

Satellite Type and Status

DEBRISIN ORBIT

Key statistics

Satellite DELTA 1 DEB at a glance.

Uptime

21978

Days in orbit

Revolutions

≈ 14.2

Per day

Orbit

SSO

Sun Synchronous Orbit

Inclination

99.0

Latest

Satellite identification and parameters

Extended collection of information and parameters for DELTA 1 DEB.

Object identification

Identified? True

Debris? True

Object name: DELTA 1 DEB

International designator: 1965-051D

Object number (NORAD): 1529

Object ID (CCSDS): 1529

Country: UNITED STATES OF AMERICA (US)

Current information (Y/N): Y

RCS size: SMALL

Orbital parameters

Period: 101.117 minutes

Inclination: 99.0234 deg

SMA: 7189.667 km

Apoapsis: 837.191 km

Periapsis: 785.873 km

RAAN: 113.2016 deg

Eccentricy: 0.00356887

Argument of periapsis: 333.14 deg

Mean anomaly: 26.793 deg

Mean motion: 14.2409717 rev/day

Mean motion (dot): 0.00000435 rev/day2

B* drag term: 0.00020817644 1/REarth

Two-line elements (TLE)

Creation date: Sept. 2, 2025, 11:42 p.m.

Reference frame: TEME

Reference center: EARTH

Epoch: Sept. 2, 2025, 1:33 p.m. UTC

TLE line 0: 0 DELTA 1 DEB

TLE line 1: 1 01529U 65051D 25245.56479285 .00000435 00000-0 20818-3 0 9992

TLE line 2: 2 01529 99.0234 113.2016 0035689 333.1400 26.7930 14.24097170114508

Live tracking on map

Real-time ground track for satellite DELTA 1 DEB.

In-orbit conjunctions

A list of the most updated potential collisions computed for object DELTA 1 DEB.

Target Orbit TCA Probability of collision Miss distance Type
CZ-6A DEB LEO 2024-12-06 04:05:55 0.0002783736 210.0 (m) DEBRIS
COSMOS 2082 LEO 2024-10-31 20:09:54 0.0001202493 82.0 (m) PAYLOAD
FENGYUN 1C DEB SSO 2024-07-12 15:36:21 0.0001314198 248.0 (m) DEBRIS

Associated space launch

NASA's TIROS (Television & Infra-Red Observation Satellite) program was the first experimental weathersatellite program.

DELTA 1 DEB was lifted into orbit during the mission ‘Thor Delta C | Tiros 10’, on board a Thor Delta C space rocket.

The launch took place on July 2, 1965, 4:07 a.m. from Space Launch Complex 17B.

For more information about the launch, click the button.

Launch to space Thor Delta C | Tiros 10
Thor Delta C | Tiros 10

Agency: N/A

Status: Launch Successful

Launch date: July 2, 1965, 4:07 a.m. UTC

Rocket: Thor Delta C

Launch pad: Space Launch Complex 17B

Location: Cape Canaveral SFS, FL, USA

...

Latest news about this satellite

There are no fresh news available about this satellite. Check back as we update our databases every day.


Newsletter sign-up

Weekly statistics, charts and insights to help you stay on top of the space industry.